Time,TemperatureF,DewpointF,PressureIn,WindDirection,WindDirectionDegrees,WindSpeedMPH,WindSpeedGustMPH,Humidity,HourlyPrecipIn,Conditions,Clouds,dailyrainin,SoftwareType,DateUTC
2013-08-14 00:01:00,56.3,50.6,30.14,ESE,113,0.0,0.0,81,0.00,,,0.00,WUHU216HW,2013-08-14 05:01:00,
2013-08-14 00:06:00,56.2,50.4,30.14,ESE,113,0.0,0.0,81,0.00,,,0.00,WUHU216HW,2013-08-14 05:06:00,
2013-08-14 00:11:00,56.2,50.7,30.14,ESE,113,0.0,0.0,82,0.00,,,0.00,WUHU216HW,2013-08-14 05:11:00,
2013-08-14 00:16:00,56.0,50.2,30.14,ESE,113,0.0,0.0,81,0.00,,,0.00,WUHU216HW,2013-08-14 05:16:00,
2013-08-14 00:21:00,55.8,50.1,30.14,ESE,113,0.0,0.0,81,0.00,,,0.00,WUHU216HW,2013-08-14 05:21:00,
2013-08-14 00:26:00,55.6,50.1,30.14,ESE,113,0.0,0.0,82,0.00,,,0.00,WUHU216HW,2013-08-14 05:26:00,
2013-08-14 00:31:00,55.4,50.0,30.14,ESE,113,0.0,0.0,82,0.00,,,0.00,WUHU216HW,2013-08-14 05:31:00,
2013-08-14 00:36:00,55.3,49.8,30.14,ESE,113,0.0,0.0,82,0.00,,,0.00,WUHU216HW,2013-08-14 05:36:00,
2013-08-14 00:41:00,55.1,49.7,30.14,ESE,113,0.0,0.0,82,0.00,,,0.00,WUHU216HW,2013-08-14 05:41:00,
2013-08-14 00:46:00,55.1,49.7,30.14,ESE,113,0.0,0.0,82,0.00,,,0.00,WUHU216HW,2013-08-14 05:46:00,
2013-08-14 00:51:00,55.1,49.7,30.14,ESE,113,0.0,0.0,82,0.00,,,0.00,WUHU216HW,2013-08-14 05:51:00,
2013-08-14 00:56:00,55.3,49.8,30.14,ESE,113,0.0,0.0,82,0.00,,,0.00,WUHU216HW,2013-08-14 05:56:00,
2013-08-14 01:01:00,55.1,50.0,30.14,ESE,113,0.0,0.0,83,0.00,,,0.00,WUHU216HW,2013-08-14 06:01:00,
2013-08-14 01:06:00,54.9,49.8,30.15,ESE,113,0.0,0.0,83,0.00,,,0.00,WUHU216HW,2013-08-14 06:06:00,
2013-08-14 01:11:00,54.7,50.0,30.15,ESE,113,1.0,1.0,84,0.00,,,0.00,WUHU216HW,2013-08-14 06:11:00,
2013-08-14 01:16:00,54.7,49.6,30.14,ESE,113,0.0,1.0,83,0.00,,,0.00,WUHU216HW,2013-08-14 06:16:00,
2013-08-14 01:21:00,54.7,50.0,30.15,ESE,113,0.0,1.0,84,0.00,,,0.00,WUHU216HW,2013-08-14 06:21:00,
2013-08-14 01:26:00,54.5,49.8,30.14,ESE,113,0.0,0.0,84,0.00,,,0.00,WUHU216HW,2013-08-14 06:26:00,
2013-08-14 01:31:00,54.5,49.8,30.15,ESE,113,0.0,0.0,84,0.00,,,0.00,WUHU216HW,2013-08-14 06:31:00,
2013-08-14 01:36:00,54.4,49.6,30.15,ESE,113,0.0,0.0,84,0.00,,,0.00,WUHU216HW,2013-08-14 06:36:00,
2013-08-14 01:41:00,54.4,49.6,30.15,ESE,113,0.0,0.0,84,0.00,,,0.00,WUHU216HW,2013-08-14 06:41:00,
2013-08-14 01:46:00,54.2,49.4,30.15,ESE,113,0.0,0.0,84,0.00,,,0.00,WUHU216HW,2013-08-14 06:46:00,
2013-08-14 01:51:00,54.0,49.9,30.15,WSW,248,1.0,1.0,86,0.00,,,0.00,WUHU216HW,2013-08-14 06:51:00,
2013-08-14 01:56:00,53.8,49.7,30.14,WNW,293,0.0,2.0,86,0.00,,,0.00,WUHU216HW,2013-08-14 06:56:00,
2013-08-14 02:01:00,53.6,49.5,30.14,WNW,293,0.0,2.0,86,0.00,,,0.00,WUHU216HW,2013-08-14 07:01:00,
2013-08-14 02:06:00,53.8,49.7,30.14,WNW,293,0.0,0.0,86,0.00,,,0.00,WUHU216HW,2013-08-14 07:06:00,
2013-08-14 02:11:00,53.8,50.1,30.14,East,90,1.0,1.0,87,0.00,,,0.00,WUHU216HW,2013-08-14 07:11:00,
2013-08-14 02:16:00,54.0,49.9,30.14,East,90,0.0,1.0,86,0.00,,,0.00,WUHU216HW,2013-08-14 07:16:00,
2013-08-14 02:21:00,54.0,49.9,30.14,East,90,0.0,1.0,86,0.00,,,0.00,WUHU216HW,2013-08-14 07:21:00,
2013-08-14 02:26:00,54.0,49.9,30.14,East,90,0.0,0.0,86,0.00,,,0.00,WUHU216HW,2013-08-14 07:26:00,
2013-08-14 02:31:00,54.2,50.0,30.14,East,90,0.0,0.0,86,0.00,,,0.00,WUHU216HW,2013-08-14 07:31:00,
2013-08-14 02:36:00,54.2,50.0,30.14,East,90,0.0,0.0,86,0.00,,,0.00,WUHU216HW,2013-08-14 07:36:00,
2013-08-14 02:41:00,54.4,50.2,30.14,East,90,0.0,0.0,86,0.00,,,0.00,WUHU216HW,2013-08-14 07:41:00,
2013-08-14 02:46:00,54.4,50.6,30.14,East,90,0.0,0.0,87,0.00,,,0.00,WUHU216HW,2013-08-14 07:46:00,
2013-08-14 02:51:00,54.5,50.8,30.14,East,90,0.0,0.0,87,0.00,,,0.00,WUHU216HW,2013-08-14 07:51:00,
2013-08-14 02:56:00,54.5,50.8,30.14,East,90,0.0,0.0,87,0.00,,,0.00,WUHU216HW,2013-08-14 07:56:00,
2013-08-14 03:01:00,54.7,50.9,30.14,East,90,0.0,0.0,87,0.00,,,0.00,WUHU216HW,2013-08-14 08:01:00,
2013-08-14 03:06:00,54.9,51.0,30.14,East,90,0.0,0.0,87,0.00,,,0.00,WUHU216HW,2013-08-14 08:06:00,
2013-08-14 03:11:00,54.9,51.0,30.14,East,90,0.0,0.0,87,0.00,,,0.00,WUHU216HW,2013-08-14 08:11:00,
2013-08-14 03:16:00,55.1,51.2,30.15,East,90,0.0,0.0,87,0.00,,,0.00,WUHU216HW,2013-08-14 08:16:00,
2013-08-14 03:21:00,55.1,51.2,30.14,East,90,1.0,1.0,87,0.00,,,0.00,WUHU216HW,2013-08-14 08:21:00,
2013-08-14 03:26:00,55.1,51.2,30.14,East,90,0.0,1.0,87,0.00,,,0.00,WUHU216HW,2013-08-14 08:26:00,
2013-08-14 03:31:00,55.1,51.2,30.15,East,90,0.0,1.0,87,0.00,,,0.00,WUHU216HW,2013-08-14 08:31:00,
2013-08-14 03:36:00,55.1,51.2,30.15,East,90,0.0,0.0,87,0.00,,,0.00,WUHU216HW,2013-08-14 08:36:00,
2013-08-14 03:41:00,55.3,51.4,30.15,East,90,0.0,0.0,87,0.00,,,0.00,WUHU216HW,2013-08-14 08:41:00,
2013-08-14 03:46:00,55.3,51.4,30.15,East,90,0.0,0.0,87,0.00,,,0.00,WUHU216HW,2013-08-14 08:46:00,
2013-08-14 03:51:00,55.1,51.2,30.15,North,0,1.0,1.0,87,0.00,,,0.00,WUHU216HW,2013-08-14 08:51:00,
2013-08-14 03:56:00,55.1,51.2,30.15,ENE,68,1.0,1.0,87,0.00,,,0.00,WUHU216HW,2013-08-14 08:56:00,
2013-08-14 04:01:00,55.1,51.0,30.15,SE,135,1.0,2.0,86,0.00,,,0.00,WUHU216HW,2013-08-14 09:01:00,
2013-08-14 04:06:00,55.1,51.2,30.15,SE,135,0.0,2.0,87,0.00,,,0.00,WUHU216HW,2013-08-14 09:06:00,
2013-08-14 04:11:00,54.9,51.0,30.15,West,270,1.0,1.0,87,0.00,,,0.00,WUHU216HW,2013-08-14 09:11:00,
2013-08-14 04:16:00,54.7,51.2,30.15,West,270,0.0,1.0,88,0.00,,,0.00,WUHU216HW,2013-08-14 09:16:00,
2013-08-14 04:21:00,54.5,51.0,30.15,WSW,248,0.0,1.0,88,0.00,,,0.00,WUHU216HW,2013-08-14 09:21:00,
2013-08-14 04:26:00,54.4,50.6,30.15,WSW,248,0.0,1.0,87,0.00,,,0.00,WUHU216HW,2013-08-14 09:26:00,
2013-08-14 04:31:00,54.4,50.6,30.16,WSW,248,0.0,0.0,87,0.00,,,0.00,WUHU216HW,2013-08-14 09:31:00,
2013-08-14 04:36:00,54.2,50.7,30.16,SSE,158,0.0,1.0,88,0.00,,,0.00,WUHU216HW,2013-08-14 09:36:00,
2013-08-14 04:41:00,54.0,50.5,30.16,SSE,158,0.0,1.0,88,0.00,,,0.00,WUHU216HW,2013-08-14 09:41:00,
2013-08-14 04:46:00,53.8,50.3,30.16,WSW,248,0.0,2.0,88,0.00,,,0.00,WUHU216HW,2013-08-14 09:46:00,
2013-08-14 04:51:00,53.6,50.1,30.16,WSW,248,0.0,2.0,88,0.00,,,0.00,WUHU216HW,2013-08-14 09:51:00,
2013-08-14 04:56:00,53.5,50.3,30.16,WSW,248,0.0,1.0,89,0.00,,,0.00,WUHU216HW,2013-08-14 09:56:00,
2013-08-14 05:01:00,53.5,50.3,30.16,SE,135,1.0,1.0,89,0.00,,,0.00,WUHU216HW,2013-08-14 10:01:00,
2013-08-14 05:06:00,53.3,50.1,30.16,ESE,113,0.0,1.0,89,0.00,,,0.00,WUHU216HW,2013-08-14 10:06:00,
2013-08-14 05:11:00,53.3,50.1,30.16,ESE,113,0.0,1.0,89,0.00,,,0.00,WUHU216HW,2013-08-14 10:11:00,
2013-08-14 05:16:00,53.1,49.6,30.16,ESE,113,0.0,1.0,88,0.00,,,0.00,WUHU216HW,2013-08-14 10:16:00,
2013-08-14 05:21:00,52.9,49.8,30.15,South,180,0.0,1.0,89,0.00,,,0.00,WUHU216HW,2013-08-14 10:21:00,
2013-08-14 05:26:00,52.9,49.8,30.15,South,180,0.0,1.0,89,0.00,,,0.00,WUHU216HW,2013-08-14 10:26:00,
2013-08-14 05:31:00,52.7,49.6,30.15,South,180,0.0,0.0,89,0.00,,,0.00,WUHU216HW,2013-08-14 10:31:00,
2013-08-14 05:36:00,52.7,49.6,30.15,South,180,0.0,0.0,89,0.00,,,0.00,WUHU216HW,2013-08-14 10:36:00,
2013-08-14 05:41:00,52.7,49.6,30.15,ESE,113,0.0,1.0,89,0.00,,,0.00,WUHU216HW,2013-08-14 10:41:00,
2013-08-14 05:46:00,52.6,49.4,30.15,ESE,113,0.0,1.0,89,0.00,,,0.00,WUHU216HW,2013-08-14 10:46:00,
2013-08-14 05:51:00,52.4,49.2,30.15,ESE,113,0.0,0.0,89,0.00,,,0.00,WUHU216HW,2013-08-14 10:51:00,
2013-08-14 05:56:00,52.4,48.9,30.15,ESE,113,0.0,0.0,88,0.00,,,0.00,WUHU216HW,2013-08-14 10:56:00,
2013-08-14 06:01:00,52.4,49.2,30.15,ESE,113,0.0,0.0,89,0.00,,,0.00,WUHU216HW,2013-08-14 11:01:00,
2013-08-14 06:06:00,52.2,49.1,30.16,ESE,113,0.0,0.0,89,0.00,,,0.00,WUHU216HW,2013-08-14 11:06:00,
2013-08-14 06:11:00,52.2,49.1,30.15,ESE,113,0.0,0.0,89,0.00,,,0.00,WUHU216HW,2013-08-14 11:11:00,
2013-08-14 06:16:00,52.2,49.1,30.15,ESE,113,0.0,0.0,89,0.00,,,0.00,WUHU216HW,2013-08-14 11:16:00,
2013-08-14 06:21:00,52.2,49.1,30.15,ESE,113,0.0,0.0,89,0.00,,,0.00,WUHU216HW,2013-08-14 11:21:00,
2013-08-14 06:26:00,52.2,49.1,30.15,ESE,113,0.0,0.0,89,0.00,,,0.00,WUHU216HW,2013-08-14 11:26:00,
2013-08-14 06:31:00,52.2,49.1,30.15,ESE,113,0.0,0.0,89,0.00,,,0.00,WUHU216HW,2013-08-14 11:31:00,
2013-08-14 06:36:00,52.2,49.1,30.15,ESE,113,0.0,0.0,89,0.00,,,0.00,WUHU216HW,2013-08-14 11:36:00,
2013-08-14 06:41:00,52.2,49.1,30.16,ESE,113,0.0,0.0,89,0.00,,,0.00,WUHU216HW,2013-08-14 11:41:00,
2013-08-14 06:46:00,52.2,49.1,30.16,ESE,113,0.0,0.0,89,0.00,,,0.00,WUHU216HW,2013-08-14 11:46:00,
2013-08-14 06:51:00,52.4,49.2,30.16,ESE,113,0.0,0.0,89,0.00,,,0.00,WUHU216HW,2013-08-14 11:51:00,
2013-08-14 06:56:00,52.6,49.4,30.16,ESE,113,0.0,0.0,89,0.00,,,0.00,WUHU216HW,2013-08-14 11:56:00,
2013-08-14 07:01:00,52.6,49.4,30.16,ESE,113,0.0,0.0,89,0.00,,,0.00,WUHU216HW,2013-08-14 12:01:00,
2013-08-14 07:06:00,52.9,49.8,30.16,ESE,113,0.0,0.0,89,0.00,,,0.00,WUHU216HW,2013-08-14 12:06:00,
2013-08-14 07:11:00,53.3,50.4,30.16,ESE,113,0.0,1.0,90,0.00,,,0.00,WUHU216HW,2013-08-14 12:11:00,
2013-08-14 07:16:00,53.6,50.5,30.16,ESE,113,0.0,1.0,89,0.00,,,0.00,WUHU216HW,2013-08-14 12:16:00,
2013-08-14 07:21:00,53.6,50.5,30.16,ESE,113,0.0,0.0,89,0.00,,,0.00,WUHU216HW,2013-08-14 12:21:00,
2013-08-14 07:26:00,55.4,52.8,30.16,ESE,113,0.0,0.0,91,0.00,,,0.00,WUHU216HW,2013-08-14 12:26:00,
2013-08-14 07:31:00,58.0,54.5,30.16,ESE,113,1.0,1.0,88,0.00,,,0.00,WUHU216HW,2013-08-14 12:31:00,
2013-08-14 07:36:00,60.3,56.2,30.16,ESE,113,0.0,1.0,86,0.00,,,0.00,WUHU216HW,2013-08-14 12:36:00,
2013-08-14 07:41:00,63.0,57.7,30.16,ESE,113,0.0,1.0,83,0.00,,,0.00,WUHU216HW,2013-08-14 12:41:00,
2013-08-14 07:46:00,65.0,59.3,30.16,ESE,113,0.0,0.0,82,0.00,,,0.00,WUHU216HW,2013-08-14 12:46:00,
2013-08-14 07:51:00,66.6,59.6,30.16,ESE,113,0.0,0.0,78,0.00,,,0.00,WUHU216HW,2013-08-14 12:51:00,
2013-08-14 07:56:00,68.0,59.5,30.16,ESE,113,0.0,1.0,74,0.00,,,0.00,WUHU216HW,2013-08-14 12:56:00,
2013-08-14 08:01:00,68.4,58.7,30.16,ESE,113,0.0,1.0,71,0.00,,,0.00,WUHU216HW,2013-08-14 13:01:00,
2013-08-14 08:06:00,67.7,58.3,30.16,WSW,248,0.0,1.0,72,0.00,,,0.00,WUHU216HW,2013-08-14 13:06:00,
2013-08-14 08:11:00,66.6,56.5,30.16,West,270,2.0,2.0,70,0.00,,,0.00,WUHU216HW,2013-08-14 13:11:00,
2013-08-14 08:16:00,66.2,57.3,30.16,WSW,248,2.0,3.0,73,0.00,,,0.00,WUHU216HW,2013-08-14 13:16:00,
2013-08-14 08:21:00,66.6,57.7,30.16,WSW,248,1.0,3.0,73,0.00,,,0.00,WUHU216HW,2013-08-14 13:21:00,
2013-08-14 08:26:00,68.0,58.7,30.16,West,270,2.0,2.0,72,0.00,,,0.00,WUHU216HW,2013-08-14 13:26:00,
2013-08-14 08:31:00,69.1,59.3,30.16,SSE,158,0.0,2.0,71,0.00,,,0.00,WUHU216HW,2013-08-14 13:31:00,
2013-08-14 08:36:00,68.9,58.3,30.16,South,180,1.0,2.0,69,0.00,,,0.00,WUHU216HW,2013-08-14 13:36:00,
2013-08-14 08:41:00,67.7,56.7,30.16,WSW,248,1.0,2.0,68,0.00,,,0.00,WUHU216HW,2013-08-14 13:41:00,
2013-08-14 08:46:00,66.6,56.5,30.16,WSW,248,1.0,2.0,70,0.00,,,0.00,WUHU216HW,2013-08-14 13:46:00,
2013-08-14 08:51:00,66.2,56.2,30.16,WSW,248,1.0,2.0,70,0.00,,,0.00,WUHU216HW,2013-08-14 13:51:00,
2013-08-14 08:56:00,66.6,56.9,30.16,SW,225,1.0,3.0,71,0.00,,,0.00,WUHU216HW,2013-08-14 13:56:00,
2013-08-14 09:01:00,67.1,57.4,30.16,WSW,248,1.0,3.0,71,0.00,,,0.00,WUHU216HW,2013-08-14 14:01:00,
2013-08-14 09:06:00,68.0,58.3,30.16,WSW,248,2.0,3.0,71,0.00,,,0.00,WUHU216HW,2013-08-14 14:06:00,
2013-08-14 09:11:00,68.2,58.2,30.16,WSW,248,0.0,3.0,70,0.00,,,0.00,WUHU216HW,2013-08-14 14:11:00,
2013-08-14 09:16:00,68.6,58.4,30.17,WSW,248,0.0,2.0,70,0.00,,,0.00,WUHU216HW,2013-08-14 14:16:00,
2013-08-14 09:21:00,68.9,58.3,30.16,WSW,248,1.0,3.0,69,0.00,,,0.00,WUHU216HW,2013-08-14 14:21:00,
2013-08-14 09:26:00,69.1,58.1,30.17,West,270,2.0,3.0,68,0.00,,,0.00,WUHU216HW,2013-08-14 14:26:00,
2013-08-14 09:31:00,69.5,58.4,30.16,West,270,1.0,4.0,68,0.00,,,0.00,WUHU216HW,2013-08-14 14:31:00,
2013-08-14 09:36:00,69.1,57.7,30.17,SW,225,2.0,4.0,67,0.00,,,0.00,WUHU216HW,2013-08-14 14:36:00,
2013-08-14 09:41:00,69.5,58.4,30.17,WSW,248,1.0,3.0,68,0.00,,,0.00,WUHU216HW,2013-08-14 14:41:00,
2013-08-14 09:46:00,69.8,58.3,30.16,West,270,2.0,4.0,67,0.00,,,0.00,WUHU216HW,2013-08-14 14:46:00,
2013-08-14 09:51:00,69.8,58.0,30.17,WSW,248,1.0,4.0,66,0.00,,,0.00,WUHU216HW,2013-08-14 14:51:00,
2013-08-14 09:56:00,70.0,56.9,30.17,WSW,248,3.0,3.0,63,0.00,,,0.00,WUHU216HW,2013-08-14 14:56:00,
2013-08-14 10:01:00,70.2,57.4,30.17,SSW,203,3.0,5.0,64,0.00,,,0.00,WUHU216HW,2013-08-14 15:01:00,
2013-08-14 10:06:00,70.6,57.8,30.17,WSW,248,2.0,5.0,64,0.00,,,0.00,WUHU216HW,2013-08-14 15:06:00,
2013-08-14 10:11:00,70.7,58.0,30.17,West,270,3.0,4.0,64,0.00,,,0.00,WUHU216HW,2013-08-14 15:11:00,
2013-08-14 10:16:00,71.3,58.4,30.17,SW,225,3.0,4.0,64,0.00,,,0.00,WUHU216HW,2013-08-14 15:16:00,
2013-08-14 10:21:00,71.6,58.0,30.17,West,270,3.0,3.0,62,0.00,,,0.00,WUHU216HW,2013-08-14 15:21:00,
2013-08-14 10:26:00,71.6,57.1,30.17,SW,225,3.0,4.0,60,0.00,,,0.00,WUHU216HW,2013-08-14 15:26:00,
2013-08-14 10:31:00,71.6,57.5,30.17,West,270,3.0,4.0,61,0.00,,,0.00,WUHU216HW,2013-08-14 15:31:00,
2013-08-14 10:36:00,71.8,57.7,30.17,WNW,293,1.0,5.0,61,0.00,,,0.00,WUHU216HW,2013-08-14 15:36:00,
2013-08-14 10:41:00,72.2,57.5,30.17,WSW,248,2.0,5.0,60,0.00,,,0.00,WUHU216HW,2013-08-14 15:41:00,
2013-08-14 10:46:00,72.5,57.9,30.17,WSW,248,3.0,5.0,60,0.00,,,0.00,WUHU216HW,2013-08-14 15:46:00,
2013-08-14 10:51:00,73.3,58.5,30.17,WSW,248,1.0,5.0,60,0.00,,,0.00,WUHU216HW,2013-08-14 15:51:00,
2013-08-14 10:54:00,73.1,56.9,30.17,SW,225,3.0,5.0,57,0.00,,,0.00,WUHU216HW,2013-08-14 15:54:00,
2013-08-14 10:59:00,72.7,58.1,30.17,WNW,293,4.0,5.0,60,0.00,,,0.00,WUHU216HW,2013-08-14 15:59:00,
2013-08-14 11:04:00,73.1,57.9,30.17,WSW,248,2.0,5.0,59,0.00,,,0.00,WUHU216HW,2013-08-14 16:04:00,
2013-08-14 11:09:00,72.9,58.7,30.17,West,270,1.0,3.0,61,0.00,,,0.00,WUHU216HW,2013-08-14 16:09:00,
2013-08-14 11:14:00,73.4,58.7,30.17,WNW,293,5.0,5.0,60,0.00,,,0.00,WUHU216HW,2013-08-14 16:14:00,
2013-08-14 11:19:00,73.8,59.0,30.17,NNW,338,3.0,5.0,60,0.00,,,0.00,WUHU216HW,2013-08-14 16:19:00,
2013-08-14 11:24:00,74.2,59.4,30.17,SW,225,2.0,4.0,60,0.00,,,0.00,WUHU216HW,2013-08-14 16:24:00,
2013-08-14 11:29:00,74.0,58.2,30.17,WSW,248,3.0,4.0,58,0.00,,,0.00,WUHU216HW,2013-08-14 16:29:00,
2013-08-14 11:34:00,74.0,58.7,30.17,West,270,4.0,4.0,59,0.00,,,0.00,WUHU216HW,2013-08-14 16:34:00,
2013-08-14 11:39:00,74.2,58.9,30.17,West,270,1.0,4.0,59,0.00,,,0.00,WUHU216HW,2013-08-14 16:39:00,
2013-08-14 11:44:00,74.5,58.8,30.17,WSW,248,1.0,4.0,58,0.00,,,0.00,WUHU216HW,2013-08-14 16:44:00,
2013-08-14 11:49:00,74.2,57.9,30.17,North,0,6.0,6.0,57,0.00,,,0.00,WUHU216HW,2013-08-14 16:49:00,
2013-08-14 11:54:00,74.9,59.6,30.16,North,0,3.0,6.0,59,0.00,,,0.00,WUHU216HW,2013-08-14 16:54:00,
2013-08-14 11:59:00,75.4,58.6,30.17,West,270,3.0,6.0,56,0.00,,,0.00,WUHU216HW,2013-08-14 16:59:00,
2013-08-14 12:04:00,75.4,59.7,30.17,South,180,2.0,4.0,58,0.00,,,0.00,WUHU216HW,2013-08-14 17:04:00,
2013-08-14 12:09:00,75.8,59.5,30.17,WSW,248,1.0,3.0,57,0.00,,,0.00,WUHU216HW,2013-08-14 17:09:00,
2013-08-14 12:14:00,75.8,59.0,30.16,West,270,4.0,4.0,56,0.00,,,0.00,WUHU216HW,2013-08-14 17:14:00,
2013-08-14 12:19:00,76.3,59.4,30.16,WNW,293,2.0,5.0,56,0.00,,,0.00,WUHU216HW,2013-08-14 17:19:00,
2013-08-14 12:24:00,76.7,59.2,30.16,West,270,2.0,5.0,55,0.00,,,0.00,WUHU216HW,2013-08-14 17:24:00,
2013-08-14 12:29:00,76.9,59.0,30.16,WSW,248,4.0,4.0,54,0.00,,,0.00,WUHU216HW,2013-08-14 17:29:00,
2013-08-14 12:34:00,75.6,57.2,30.15,WSW,248,1.0,6.0,53,0.00,,,0.00,WUHU216HW,2013-08-14 17:34:00,
2013-08-14 12:39:00,75.2,58.0,30.16,SSW,203,3.0,6.0,55,0.00,,,0.00,WUHU216HW,2013-08-14 17:39:00,
2013-08-14 12:44:00,75.1,56.8,30.15,West,270,2.0,6.0,53,0.00,,,0.00,WUHU216HW,2013-08-14 17:44:00,
2013-08-14 12:49:00,75.8,58.0,30.15,WSW,248,2.0,6.0,54,0.00,,,0.00,WUHU216HW,2013-08-14 17:49:00,
2013-08-14 12:54:00,76.7,58.2,30.15,South,180,4.0,5.0,53,0.00,,,0.00,WUHU216HW,2013-08-14 17:54:00,
2013-08-14 12:59:00,76.7,57.8,30.14,West,270,1.0,4.0,52,0.00,,,0.00,WUHU216HW,2013-08-14 17:59:00,
2013-08-14 13:04:00,76.9,57.4,30.14,West,270,3.0,5.0,51,0.00,,,0.00,WUHU216HW,2013-08-14 18:04:00,
2013-08-14 13:09:00,77.2,58.2,30.14,West,270,1.0,5.0,52,0.00,,,0.00,WUHU216HW,2013-08-14 18:09:00,
2013-08-14 13:14:00,77.6,58.1,30.14,West,270,3.0,5.0,51,0.00,,,0.00,WUHU216HW,2013-08-14 18:14:00,
2013-08-14 13:19:00,77.6,57.5,30.14,WSW,248,5.0,7.0,50,0.00,,,0.00,WUHU216HW,2013-08-14 18:19:00,
2013-08-14 13:24:00,77.8,55.3,30.14,WSW,248,5.0,7.0,46,0.00,,,0.00,WUHU216HW,2013-08-14 18:24:00,
2013-08-14 13:29:00,77.2,55.4,30.14,WNW,293,2.0,6.0,47,0.00,,,0.00,WUHU216HW,2013-08-14 18:29:00,
2013-08-14 13:34:00,77.6,57.0,30.14,North,0,1.0,5.0,49,0.00,,,0.00,WUHU216HW,2013-08-14 18:34:00,
2013-08-14 13:39:00,77.6,56.4,30.13,SW,225,2.0,7.0,48,0.00,,,0.00,WUHU216HW,2013-08-14 18:39:00,
2013-08-14 13:44:00,76.7,54.3,30.13,NW,315,4.0,7.0,46,0.00,,,0.00,WUHU216HW,2013-08-14 18:44:00,
2013-08-14 13:49:00,76.3,55.2,30.13,WNW,293,5.0,5.0,48,0.00,,,0.00,WUHU216HW,2013-08-14 18:49:00,
2013-08-14 13:54:00,76.3,55.2,30.13,WNW,293,4.0,5.0,48,0.00,,,0.00,WUHU216HW,2013-08-14 18:54:00,
2013-08-14 13:59:00,76.0,54.9,30.13,SW,225,1.0,5.0,48,0.00,,,0.00,WUHU216HW,2013-08-14 18:59:00,
2013-08-14 14:04:00,75.6,54.5,30.13,West,270,3.0,4.0,48,0.00,,,0.00,WUHU216HW,2013-08-14 19:04:00,
2013-08-14 14:12:00,75.8,55.4,30.13,West,270,1.0,4.0,49,0.00,,,0.00,WUHU216HW,2013-08-14 19:12:00,
2013-08-14 14:17:00,76.3,55.2,30.12,SW,225,1.0,4.0,48,0.00,,,0.00,WUHU216HW,2013-08-14 19:17:00,
2013-08-14 14:22:00,77.4,56.8,30.12,WSW,248,1.0,4.0,49,0.00,,,0.00,WUHU216HW,2013-08-14 19:22:00,
2013-08-14 14:27:00,78.1,56.8,30.12,NW,315,2.0,5.0,48,0.00,,,0.00,WUHU216HW,2013-08-14 19:27:00,
2013-08-14 14:32:00,78.1,56.2,30.12,WSW,248,2.0,5.0,47,0.00,,,0.00,WUHU216HW,2013-08-14 19:32:00,
2013-08-14 14:37:00,77.4,55.5,30.12,NW,315,1.0,4.0,47,0.00,,,0.00,WUHU216HW,2013-08-14 19:37:00,
2013-08-14 14:42:00,77.0,55.8,30.12,SW,225,2.0,4.0,48,0.00,,,0.00,WUHU216HW,2013-08-14 19:42:00,
2013-08-14 14:47:00,76.5,56.0,30.12,SW,225,1.0,4.0,49,0.00,,,0.00,WUHU216HW,2013-08-14 19:47:00,
2013-08-14 14:52:00,76.3,55.8,30.12,WNW,293,1.0,3.0,49,0.00,,,0.00,WUHU216HW,2013-08-14 19:52:00,
2013-08-14 14:57:00,76.3,55.8,30.12,WSW,248,1.0,3.0,49,0.00,,,0.00,WUHU216HW,2013-08-14 19:57:00,
2013-08-14 15:02:00,76.1,55.6,30.11,SSE,158,1.0,2.0,49,0.00,,,0.00,WUHU216HW,2013-08-14 20:02:00,
2013-08-14 15:07:00,76.0,55.4,30.12,West,270,4.0,4.0,49,0.00,,,0.00,WUHU216HW,2013-08-14 20:07:00,
2013-08-14 15:12:00,75.6,54.5,30.12,West,270,2.0,5.0,48,0.00,,,0.00,WUHU216HW,2013-08-14 20:12:00,
2013-08-14 15:17:00,75.2,54.2,30.11,SW,225,2.0,5.0,48,0.00,,,0.00,WUHU216HW,2013-08-14 20:17:00,
2013-08-14 15:22:00,75.1,54.0,30.11,WSW,248,3.0,5.0,48,0.00,,,0.00,WUHU216HW,2013-08-14 20:22:00,
2013-08-14 15:27:00,75.2,55.4,30.11,WSW,248,4.0,5.0,50,0.00,,,0.00,WUHU216HW,2013-08-14 20:27:00,
2013-08-14 15:32:00,75.2,54.8,30.11,SSW,203,1.0,4.0,49,0.00,,,0.00,WUHU216HW,2013-08-14 20:32:00,
2013-08-14 15:37:00,75.2,54.2,30.11,West,270,3.0,5.0,48,0.00,,,0.00,WUHU216HW,2013-08-14 20:37:00,
2013-08-14 15:42:00,75.2,54.2,30.11,West,270,1.0,5.0,48,0.00,,,0.00,WUHU216HW,2013-08-14 20:42:00,
2013-08-14 15:47:00,75.4,55.0,30.11,SSE,158,2.0,4.0,49,0.00,,,0.00,WUHU216HW,2013-08-14 20:47:00,
2013-08-14 15:52:00,75.8,55.4,30.11,South,180,2.0,4.0,49,0.00,,,0.00,WUHU216HW,2013-08-14 20:52:00,
2013-08-14 15:57:00,76.1,56.3,30.11,NNW,338,3.0,4.0,50,0.00,,,0.00,WUHU216HW,2013-08-14 20:57:00,
2013-08-14 16:02:00,76.9,55.7,30.11,NW,315,2.0,4.0,48,0.00,,,0.00,WUHU216HW,2013-08-14 21:02:00,
2013-08-14 16:07:00,76.5,54.7,30.11,SW,225,2.0,4.0,47,0.00,,,0.00,WUHU216HW,2013-08-14 21:07:00,
2013-08-14 16:12:00,76.3,55.2,30.11,NW,315,2.0,4.0,48,0.00,,,0.00,WUHU216HW,2013-08-14 21:12:00,
2013-08-14 16:17:00,76.7,54.3,30.10,WSW,248,2.0,4.0,46,0.00,,,0.00,WUHU216HW,2013-08-14 21:17:00,
2013-08-14 16:22:00,77.2,54.8,30.10,West,270,2.0,3.0,46,0.00,,,0.00,WUHU216HW,2013-08-14 21:22:00,
2013-08-14 16:27:00,77.8,54.6,30.10,WSW,248,3.0,4.0,45,0.00,,,0.00,WUHU216HW,2013-08-14 21:27:00,
2013-08-14 16:32:00,78.1,55.0,30.10,WNW,293,2.0,5.0,45,0.00,,,0.00,WUHU216HW,2013-08-14 21:32:00,
2013-08-14 16:37:00,77.9,54.8,30.10,WNW,293,3.0,5.0,45,0.00,,,0.00,WUHU216HW,2013-08-14 21:37:00,
2013-08-14 16:42:00,77.8,54.6,30.10,WSW,248,3.0,5.0,45,0.00,,,0.00,WUHU216HW,2013-08-14 21:42:00,
2013-08-14 16:47:00,77.8,54.0,30.10,NNW,338,2.0,4.0,44,0.00,,,0.00,WUHU216HW,2013-08-14 21:47:00,
2013-08-14 16:52:00,77.9,55.5,30.10,SSW,203,3.0,4.0,46,0.00,,,0.00,WUHU216HW,2013-08-14 21:52:00,
2013-08-14 16:57:00,77.8,55.3,30.10,SSE,158,1.0,3.0,46,0.00,,,0.00,WUHU216HW,2013-08-14 21:57:00,
2013-08-14 17:02:00,77.9,55.5,30.10,SSW,203,0.0,4.0,46,0.00,,,0.00,WUHU216HW,2013-08-14 22:02:00,
2013-08-14 17:07:00,77.6,53.9,30.10,West,270,2.0,4.0,44,0.00,,,0.00,WUHU216HW,2013-08-14 22:07:00,
2013-08-14 17:12:00,77.2,54.8,30.10,SW,225,1.0,3.0,46,0.00,,,0.00,WUHU216HW,2013-08-14 22:12:00,
2013-08-14 17:17:00,77.4,55.5,30.10,WSW,248,1.0,3.0,47,0.00,,,0.00,WUHU216HW,2013-08-14 22:17:00,
2013-08-14 17:22:00,77.4,55.5,30.10,SW,225,1.0,2.0,47,0.00,,,0.00,WUHU216HW,2013-08-14 22:22:00,
2013-08-14 17:27:00,76.9,54.5,30.09,SW,225,1.0,2.0,46,0.00,,,0.00,WUHU216HW,2013-08-14 22:27:00,
2013-08-14 17:32:00,76.5,54.7,30.09,WNW,293,1.0,3.0,47,0.00,,,0.00,WUHU216HW,2013-08-14 22:32:00,
2013-08-14 17:37:00,76.1,53.2,30.09,NW,315,2.0,5.0,45,0.00,,,0.00,WUHU216HW,2013-08-14 22:37:00,
2013-08-14 17:42:00,75.8,52.8,30.09,West,270,2.0,5.0,45,0.00,,,0.00,WUHU216HW,2013-08-14 22:42:00,
2013-08-14 17:47:00,75.6,53.3,30.09,WSW,248,5.0,5.0,46,0.00,,,0.00,WUHU216HW,2013-08-14 22:47:00,
2013-08-14 17:52:00,75.2,53.0,30.09,West,270,2.0,5.0,46,0.00,,,0.00,WUHU216HW,2013-08-14 22:52:00,
2013-08-14 17:57:00,74.5,52.9,30.09,West,270,2.0,5.0,47,0.00,,,0.00,WUHU216HW,2013-08-14 22:57:00,
2013-08-14 18:02:00,73.8,53.4,30.09,West,270,1.0,3.0,49,0.00,,,0.00,WUHU216HW,2013-08-14 23:02:00,
2013-08-14 18:07:00,73.8,54.0,30.09,West,270,0.0,2.0,50,0.00,,,0.00,WUHU216HW,2013-08-14 23:07:00,
2013-08-14 18:12:00,74.0,54.7,30.08,West,270,1.0,1.0,51,0.00,,,0.00,WUHU216HW,2013-08-14 23:12:00,
2013-08-14 18:17:00,74.0,54.7,30.08,WSW,248,1.0,2.0,51,0.00,,,0.00,WUHU216HW,2013-08-14 23:17:00,
2013-08-14 18:22:00,74.0,54.7,30.09,WSW,248,0.0,2.0,51,0.00,,,0.00,WUHU216HW,2013-08-14 23:22:00,
2013-08-14 18:27:00,74.0,54.7,30.08,SW,225,0.0,2.0,51,0.00,,,0.00,WUHU216HW,2013-08-14 23:27:00,
2013-08-14 18:32:00,74.0,54.7,30.08,SW,225,0.0,2.0,51,0.00,,,0.00,WUHU216HW,2013-08-14 23:32:00,
2013-08-14 18:37:00,73.8,55.5,30.08,South,180,1.0,2.0,53,0.00,,,0.00,WUHU216HW,2013-08-14 23:37:00,
2013-08-14 18:42:00,73.6,55.4,30.08,WNW,293,1.0,2.0,53,0.00,,,0.00,WUHU216HW,2013-08-14 23:42:00,
2013-08-14 18:47:00,73.4,54.6,30.08,WSW,248,0.0,1.0,52,0.00,,,0.00,WUHU216HW,2013-08-14 23:47:00,
2013-08-14 18:52:00,73.1,54.4,30.08,WNW,293,1.0,2.0,52,0.00,,,0.00,WUHU216HW,2013-08-14 23:52:00,
2013-08-14 18:57:00,72.9,53.6,30.08,West,270,1.0,4.0,51,0.00,,,0.00,WUHU216HW,2013-08-14 23:57:00,
2013-08-14 19:02:00,72.7,53.5,30.08,West,270,3.0,4.0,51,0.00,,,0.00,WUHU216HW,2013-08-15 00:02:00,
2013-08-14 19:07:00,72.5,53.8,30.08,SW,225,0.0,3.0,52,0.00,,,0.00,WUHU216HW,2013-08-15 00:07:00,
2013-08-14 19:12:00,72.4,53.6,30.08,WSW,248,0.0,3.0,52,0.00,,,0.00,WUHU216HW,2013-08-15 00:12:00,
2013-08-14 19:17:00,72.0,53.8,30.08,WSW,248,2.0,2.0,53,0.00,,,0.00,WUHU216HW,2013-08-15 00:17:00,
2013-08-14 19:22:00,71.8,53.7,30.08,WSW,248,1.0,2.0,53,0.00,,,0.00,WUHU216HW,2013-08-15 00:22:00,
2013-08-14 19:27:00,71.5,53.9,30.08,WSW,248,1.0,3.0,54,0.00,,,0.00,WUHU216HW,2013-08-15 00:27:00,
2013-08-14 19:32:00,71.3,53.7,30.08,SSW,203,2.0,3.0,54,0.00,,,0.00,WUHU216HW,2013-08-15 00:32:00,
2013-08-14 19:37:00,70.9,53.4,30.08,WSW,248,1.0,2.0,54,0.00,,,0.00,WUHU216HW,2013-08-15 00:37:00,
2013-08-14 19:42:00,70.6,53.1,30.08,NW,315,0.0,2.0,54,0.00,,,0.00,WUHU216HW,2013-08-15 00:42:00,
2013-08-14 19:47:00,70.4,53.4,30.08,WSW,248,1.0,3.0,55,0.00,,,0.00,WUHU216HW,2013-08-15 00:47:00,
2013-08-14 19:52:00,70.0,53.1,30.08,WSW,248,0.0,3.0,55,0.00,,,0.00,WUHU216HW,2013-08-15 00:52:00,
2013-08-14 19:57:00,69.8,52.9,30.08,WSW,248,0.0,3.0,55,0.00,,,0.00,WUHU216HW,2013-08-15 00:57:00,
2013-08-14 20:02:00,69.7,52.7,30.08,WSW,248,0.0,3.0,55,0.00,,,0.00,WUHU216HW,2013-08-15 01:02:00,
2013-08-14 20:07:00,69.5,52.6,30.08,WSW,248,0.0,1.0,55,0.00,,,0.00,WUHU216HW,2013-08-15 01:07:00,
2013-08-14 20:12:00,69.1,52.8,30.08,WSW,248,0.0,1.0,56,0.00,,,0.00,WUHU216HW,2013-08-15 01:12:00,
2013-08-14 20:17:00,68.8,52.4,30.08,WSW,248,0.0,1.0,56,0.00,,,0.00,WUHU216HW,2013-08-15 01:17:00,
2013-08-14 20:22:00,68.2,52.8,30.08,WSW,248,0.0,0.0,58,0.00,,,0.00,WUHU216HW,2013-08-15 01:22:00,
2013-08-14 20:27:00,67.9,53.0,30.08,WSW,248,0.0,0.0,59,0.00,,,0.00,WUHU216HW,2013-08-15 01:27:00,
2013-08-14 20:32:00,67.3,52.5,30.08,WSW,248,0.0,0.0,59,0.00,,,0.00,WUHU216HW,2013-08-15 01:32:00,
2013-08-14 20:37:00,67.0,52.7,30.08,WSW,248,0.0,0.0,60,0.00,,,0.00,WUHU216HW,2013-08-15 01:37:00,
2013-08-14 20:42:00,66.6,52.4,30.08,WSW,248,0.0,0.0,60,0.00,,,0.00,WUHU216HW,2013-08-15 01:42:00,
2013-08-14 20:47:00,66.2,52.8,30.08,WSW,248,0.0,0.0,62,0.00,,,0.00,WUHU216HW,2013-08-15 01:47:00,
2013-08-14 20:52:00,66.1,53.1,30.08,WSW,248,0.0,0.0,63,0.00,,,0.00,WUHU216HW,2013-08-15 01:52:00,
2013-08-14 20:57:00,65.7,53.2,30.08,WSW,248,0.0,0.0,64,0.00,,,0.00,WUHU216HW,2013-08-15 01:57:00,
2013-08-14 21:02:00,65.3,53.3,30.08,WSW,248,0.0,0.0,65,0.00,,,0.00,WUHU216HW,2013-08-15 02:02:00,
2013-08-14 21:07:00,65.2,53.5,30.09,WSW,248,0.0,0.0,66,0.00,,,0.00,WUHU216HW,2013-08-15 02:07:00,
2013-08-14 21:12:00,64.8,53.6,30.09,WSW,248,0.0,0.0,67,0.00,,,0.00,WUHU216HW,2013-08-15 02:12:00,
2013-08-14 21:17:00,64.6,53.8,30.09,WSW,248,0.0,0.0,68,0.00,,,0.00,WUHU216HW,2013-08-15 02:17:00,
2013-08-14 21:22:00,64.1,53.7,30.09,WSW,248,0.0,0.0,69,0.00,,,0.00,WUHU216HW,2013-08-15 02:22:00,
2013-08-14 21:27:00,63.7,53.8,30.09,WSW,248,0.0,0.0,70,0.00,,,0.00,WUHU216HW,2013-08-15 02:27:00,
2013-08-14 21:32:00,63.0,53.1,30.09,WSW,248,0.0,0.0,70,0.00,,,0.00,WUHU216HW,2013-08-15 02:32:00,
2013-08-14 21:37:00,62.6,53.1,30.09,SE,135,0.0,1.0,71,0.00,,,0.00,WUHU216HW,2013-08-15 02:37:00,
2013-08-14 21:42:00,62.3,53.1,30.09,SE,135,0.0,1.0,72,0.00,,,0.00,WUHU216HW,2013-08-15 02:42:00,
2013-08-14 21:47:00,62.1,53.0,30.09,SE,135,0.0,0.0,72,0.00,,,0.00,WUHU216HW,2013-08-15 02:47:00,
2013-08-14 21:52:00,61.9,52.8,30.09,SE,135,0.0,0.0,72,0.00,,,0.00,WUHU216HW,2013-08-15 02:52:00,
2013-08-14 21:57:00,61.9,52.8,30.09,SE,135,0.0,0.0,72,0.00,,,0.00,WUHU216HW,2013-08-15 02:57:00,
2013-08-14 22:02:00,61.2,52.9,30.09,SE,135,0.0,0.0,74,0.00,,,0.00,WUHU216HW,2013-08-15 03:02:00,
2013-08-14 22:07:00,60.8,52.6,30.09,SE,135,0.0,0.0,74,0.00,,,0.00,WUHU216HW,2013-08-15 03:07:00,
2013-08-14 22:12:00,60.8,52.6,30.09,SE,135,0.0,0.0,74,0.00,,,0.00,WUHU216HW,2013-08-15 03:12:00,
2013-08-14 22:17:00,60.8,52.6,30.09,SE,135,0.0,0.0,74,0.00,,,0.00,WUHU216HW,2013-08-15 03:17:00,
2013-08-14 22:22:00,60.7,52.7,30.09,SE,135,0.0,0.0,75,0.00,,,0.00,WUHU216HW,2013-08-15 03:22:00,
2013-08-14 22:27:00,60.5,52.6,30.09,SE,135,0.0,0.0,75,0.00,,,0.00,WUHU216HW,2013-08-15 03:27:00,
2013-08-14 22:32:00,60.3,52.4,30.09,ESE,113,0.0,0.0,75,0.00,,,0.00,WUHU216HW,2013-08-15 03:32:00,
2013-08-14 22:37:00,60.1,52.2,30.09,SE,135,0.0,1.0,75,0.00,,,0.00,WUHU216HW,2013-08-15 03:37:00,
2013-08-14 22:42:00,60.1,52.6,30.09,ESE,113,0.0,1.0,76,0.00,,,0.00,WUHU216HW,2013-08-15 03:42:00,
2013-08-14 22:47:00,59.8,52.2,30.09,ESE,113,0.0,0.0,76,0.00,,,0.00,WUHU216HW,2013-08-15 03:47:00,
2013-08-14 22:52:00,59.4,51.8,30.09,ESE,113,0.0,0.0,76,0.00,,,0.00,WUHU216HW,2013-08-15 03:52:00,
2013-08-14 22:57:00,59.4,52.2,30.09,ESE,113,0.0,0.0,77,0.00,,,0.00,WUHU216HW,2013-08-15 03:57:00,
2013-08-14 23:01:00,59.2,52.0,30.09,ESE,113,0.0,0.0,77,0.00,,,0.00,WUHU216HW,2013-08-15 04:01:00,
2013-08-14 23:06:00,59.0,52.2,30.09,ESE,113,0.0,0.0,78,0.00,,,0.00,WUHU216HW,2013-08-15 04:06:00,
2013-08-14 23:11:00,58.9,52.0,30.09,ESE,113,0.0,0.0,78,0.00,,,0.00,WUHU216HW,2013-08-15 04:11:00,
2013-08-14 23:16:00,58.7,51.8,30.09,ESE,113,0.0,0.0,78,0.00,,,0.00,WUHU216HW,2013-08-15 04:16:00,
2013-08-14 23:21:00,58.7,52.2,30.09,ESE,113,0.0,0.0,79,0.00,,,0.00,WUHU216HW,2013-08-15 04:21:00,
2013-08-14 23:26:00,58.5,52.0,30.09,ESE,113,0.0,0.0,79,0.00,,,0.00,WUHU216HW,2013-08-15 04:26:00,
2013-08-14 23:31:00,58.0,51.8,30.09,ESE,113,1.0,1.0,80,0.00,,,0.00,WUHU216HW,2013-08-15 04:31:00,
2013-08-14 23:36:00,57.8,52.0,30.09,ESE,113,0.0,1.0,81,0.00,,,0.00,WUHU216HW,2013-08-15 04:36:00,
2013-08-14 23:41:00,57.6,51.9,30.09,ESE,113,0.0,1.0,81,0.00,,,0.00,WUHU216HW,2013-08-15 04:41:00,
2013-08-14 23:46:00,57.4,51.7,30.09,ESE,113,0.0,0.0,81,0.00,,,0.00,WUHU216HW,2013-08-15 04:46:00,
2013-08-14 23:51:00,57.4,51.7,30.09,ESE,113,0.0,0.0,81,0.00,,,0.00,WUHU216HW,2013-08-15 04:51:00,
2013-08-14 23:56:00,57.4,51.7,30.09,ESE,113,0.0,0.0,81,0.00,,,0.00,WUHU216HW,2013-08-15 04:56:00,